Location: Pl�tzky
(52.0521°N, 11.8020°E)
Time: 19:21:26
(UTC+00:00)

Cosmos 1420 Rocket - Pass Details

Date: 22 November 2019
Orbit: 755 x 780 km, 74.0° (Epoch: 06 December)

Event Time Altitude Azimuth Distance (km) Brightness Sun altitude
Rises 17:19:09 0° 333° (NNW) 3,226 7.5 -18.8°
Reaches altitude 10° 17:21:32 10° 333° (NNW) 2,295 6.7 -19.2°
Maximum altitude 17:26:44 80° 248° (WSW) 774 4.0 -20.0°
Drops below altitude 10° 17:31:54 10° 162° (SSE) 2,280 6.3 -20.8°
Sets 17:34:15 0° 161° (SSE) 3,202 7.1 -21.1°
